Showing default

FLOCK 4Q 26, 58284

Orbit data source: Space-Track

FLOCK 4Q 26, 58284 is a payload satellite owned by Planet (US) in SSO that was launched on Sat, 11 Nov 2023 UTC via an FALCON 9 launch vehicle from the Air Force Western Test Range (AFWTR). Payload-class satellites include a variety of spacecraft equipped with specific instruments for various scientific and technological missions. These include communications satellites like Starlink; space stations such as the ISS; scientific satellites like the Hubble; Earth observation satellites from companies like Planet Labs, Umbra, and HawkEye 360; GPS; miniature CubeSats for education and research; and military/defense satellites.

Loading next visibility...
Identifier
58284, 2023-174AE
Orbit
SSO
Country
Flag of USUS
Related business
Manufacturer
Planet
Mission
Non-operational Commercial Imaging
Bus & Motor
CUBESAT 3U, Unknown motor
Mass
5.7 kg wet, 5.7 kg dry
Launch date (UTC)
2023-11-11 (3 years ago)
Launch vehicle
FALCON 9
Launch site
Air Force Western Test Range (AFWTR)
Object type
Payload
Rocket body
Debris
Shape & HBR
Box + 2 Pan, 1.0 m
Radar Cross Section
0.072 m², Medium (>0.1 m² and < 1m²)

Expand to show TLE details & history
Last TLE update: 2 days ago

TLE from 2 days ago
0 FLOCK 4Q 26
1 58284U 23174AE  26171.22440345  .00031292  00000-0  41856-3 0  9999
2 58284  97.3873 263.8154 0006699 143.3290 216.8425 15.57953137146305
Epoch: 2026-06-20T05:23Z
TLE epoch observation values (Epoch: 2026-06-20T05:23:08.458Z)
Latitude
-0.00003°
Longitude
-85.41193°
Altitude
400.356 km
Speed
7.668 km/s
True Right ascension
17h 35m 15s
True Declination
0° 00' 00"
Sunlit
Object was in full shadow at epoch
Visualization orbit readout
Latitude
Unknown
Longitude
Unknown
Altitude
Unknown
Speed
Unknown
Apparent Right ascension
Unknown
Apparent Declination
Unknown
Sunlit
N/A
Visualization observer readout
Local Sidereal Time
21:41:47
Azimuth
Unknown
Elevation
Unknown
Doppler factor
Unknown
Orbital elements
Apogee altitude
395.031 km
Perigee altitude
385.962 km
Semi-major axis
6,768.633 km
Eccentricity
0.00067
Inclination
97.3873°
RAAN
263.8154°
Arg. of periapsis
143.329°
True anomaly
216.7965°
Mean anomaly
216.8425°
Eccentric anomaly
216.8195°
Mean motion
3.89755 °/min
Orbital period
92.37 mins
BSTAR
0.00041856
Loading maneuver chart data...
Computing Atmospheric mass density...

Documentation

Showing up to 5 results
|